CZ-3A DEB, 35563

Orbit data source: Space-Track

CZ-3A DEB, 35563 is space debris in HEO originally from a launch on Fri, 02 Feb 2007 UTC launched from the Xichang Space Center, China (XSC). Debris objects in space refer to the collection of defunct objects orbiting the Earth. Examples of debris include non-operational satellites, rocket bodies, and fragments generated from explosions, collisions, or faulty payload assembly.

Not visible in the next 10 days
Identifier
35563, 2007-003X
Orbit
HEO
Country
Flag of CNCN / PRC
Related business
Manufacturer
Unknown
Mission
Spacecraft
Bus & Motor
Unknown
Mass
Unknown
Launch date (UTC)
2007-02-02 (19 years ago)
Launch vehicle
Unknown
Launch site
Xichang Space Center, China (XSC)
Object type
Payload
Rocket body
Debris
Shape & HBR
Unknown shape, 0.2 m
Radar Cross Section
Medium (>0.1 m² and <1 m²)

Expand to show TLE details & history
Last TLE update: 3 weeks ago

TLE from 3 weeks ago
0 CZ-3A DEB
1 35563U 07003X   26152.24607113  .00000339  00000-0  59908-2 0  9990
2 35563  21.7032 171.2917 7481304  83.1769 359.3071  1.89935042 15777
Epoch: 2026-06-01T05:54Z
TLE epoch observation values (Epoch: 2026-06-01T05:54:20.545Z)
Latitude
21.114°
Longitude
-92.15832°
Altitude
548.795 km
Speed
10.032 km/s
True Right ascension
16h 24m 39s
True Declination
20° 59' 43"
Sunlit
Object was in full shadow at epoch
Visualization orbit readout
Latitude
Unknown
Longitude
Unknown
Altitude
Unknown
Speed
Unknown
Apparent Right ascension
Unknown
Apparent Declination
Unknown
Sunlit
N/A
Visualization observer readout
Local Sidereal Time
00:50:10
Azimuth
Unknown
Elevation
Unknown
Doppler factor
Unknown
Orbital elements
Apogee altitude
41,776.835 km
Perigee altitude
560.003 km
Semi-major axis
27,546.556 km
Eccentricity
0.74813
Inclination
21.7032°
RAAN
171.2917°
Arg. of periapsis
83.1769°
True anomaly
352.76887°
Mean anomaly
359.3071°
Eccentric anomaly
357.2521°
Mean motion
0.47473 °/min
Orbital period
758.33 mins
BSTAR
0.0059908
Loading maneuver chart data...
Computing Atmospheric mass density...
Loading historical data...
Loading historical data...
Loading historical data...
Loading historical data...
Loading historical data...
Loading historical data...
Loading historical data...

Documentation

Showing up to 5 results
|